Location: Ertinghausen
(51.6624°N, 9.7874°E)
Time: 14:14:38
(UTC+00:00)

CZ-2C R/B - Pass Details

Date: 16 August 2024
Orbit: 703 x 903 km, 98.2° (Epoch: 14 September)

Event Time Altitude Azimuth Distance (km) Brightness Sun altitude
Rises 02:00:34 0° 11° (N) 3,211 7.3 -16.6°
Reaches altitude 10° 02:02:51 10° 7° (N) 2,308 6.4 -16.3°
Maximum altitude 02:07:49 56° 291° (WNW) 940 3.3 -15.8°
Enters shadow 02:10:51 24° 222° (SW) 1,610 4.0 -15.5°
